Theta_e
285 286 286 285 284 285 283 285 280 283 283 287 289 290 287 286 284 284 283 282 283 283 284 285 286 285 285 285 285 285 284 284 283 284 284 284 283 282 283 284 284 285 284 285
279 283 283 281 283 284 284 285 284 284 282 289 285 284 283 282 282 282 284 282 283 283 284 284 285 285 285 284 285 285 283 283 283 282 282 282 281 281 281 282 283 283 283 283
274 280 279 275 279 281 283 285 283 279 282 281 282 281 282 282 281 281 282 283 282 283 284 284 284 285 285 284 284 283 282 282 282 281 281 281 280 279 279 279 281 280 281 282
274 275 267 278 284 283 281 281 283 282 279 280 279 281 282 283 283 282 283 283 283 284 284 285 285 285 284 283 282 281 281 280 281 281 279 280 279 278 277 278 278 279 279 280
271 271 275 278 280 279 278 277 283 281 278 279 280 280 280 284 284 283 283 284 285 285 285 284 284 284 282 280 280 279 279 279 279 279 278 278 276 276 276 276 276 276 278 278
274 269 266 275 280 281 280 272 281 280 278 278 279 273 277 283 284 284 284 285 285 285 284 283 283 282 279 278 277 277 277 278 278 277 276 276 276 275 276 275 275 275 275 276
272 270 273 282 280 281 270 274 281 281 280 280 277 279 282 284 283 284 285 285 284 283 281 281 280 278 276 275 274 275 275 275 274 274 274 274 273 274 273 272 272 271 272 273
271 268 266 280 278 274 279 282 282 281 281 281 281 282 282 283 283 283 283 282 281 278 278 277 276 275 272 272 273 272 270 269 268 268 269 269 268 269 269 269 268 268 269 270
274 273 280 281 280 283 284 282 282 282 283 282 281 281 282 281 282 281 280 278 276 274 273 273 272 271 269 269 269 267 265 264 264 264 264 265 265 265 265 266 266 266 267 267
275 277 279 281 283 283 284 283 283 284 283 282 281 281 280 280 278 277 276 274 273 271 269 268 269 269 267 267 266 263 262 262 262 262 262 263 264 264 263 263 263 264 264 265
275 278 280 281 282 282 283 283 283 283 282 281 280 278 277 276 274 273 272 271 270 268 266 266 267 266 265 264 263 261 261 261 261 262 262 262 263 263 263 263 264 262 263 264
274 279 279 280 283 284 282 282 282 281 278 276 274 274 273 271 271 270 269 268 266 265 265 264 264 263 263 263 262 260 260 260 260 260 261 261 261 262 266 267 269 269 270 269
279 282 282 283 283 284 282 281 279 276 275 274 272 270 269 268 268 267 265 265 264 263 263 262 261 261 262 262 261 259 258 259 259 260 260 260 260 260 259 263 267 268 269 270
283 282 280 281 280 281 277 275 272 271 270 270 269 267 266 264 264 263 263 263 263 261 260 260 260 260 262 262 261 259 259 259 260 260 260 261 261 261 261 260 260 261 265 267
282 283 281 279 276 273 272 270 268 268 268 267 266 264 263 262 261 262 262 260 260 259 259 260 260 260 262 261 260 259 259 259 260 261 262 262 262 262 262 262 262 262 263 265
279 272 271 271 273 271 268 267 267 267 266 265 263 262 262 261 260 259 259 259 257 258 258 259 260 261 261 260 259 260 260 260 261 261 262 262 263 263 263 263 263 262 262 263
270 269 266 267 268 268 265 265 265 264 263 261 260 260 258 257 256 256 256 257 258 258 259 260 260 260 259 260 259 259 260 261 261 261 261 262 263 263 265 266 265 263 263 265
266 266 264 264 266 265 263 262 262 261 259 260 259 258 256 254 254 255 256 257 258 258 260 261 259 259 259 258 259 260 260 260 260 260 262 262 263 264 264 264 265 265 266 268
262 261 261 262 261 260 259 259 259 259 258 258 256 255 255 255 255 255 256 256 257 258 261 259 262 259 258 259 261 258 259 259 259 260 261 262 262 263 263 263 263 263 264 263
258 258 258 257 257 256 256 257 256 256 256 254 252 251 252 253 253 254 256 256 258 259 259 258 258 258 259 259 259 259 259 258 258 259 260 260 261 261 261 261 262 261 262 262
256 255 255 255 255 255 255 254 253 253 254 253 252 252 252 253 254 254 256 258 261 260 258 258 259 259 260 258 259 259 258 258 258 258 258 259 259 260 260 260 260 260 260 260
254 253 254 253 253 253 253 252 252 251 251 251 251 251 251 252 255 257 259 258 260 260 258 259 259 259 258 257 259 259 258 258 257 258 258 258 258 258 259 259 259 259 260 260
252 252 253 252 251 252 250 250 251 252 251 252 252 253 255 258 259 258 258 260 260 259 259 258 258 260 258 258 258 258 258 257 257 257 257 257 257 258 258 259 260 260 260 260
251 250 251 251 248 249 250 255 253 255 252 253 253 255 257 258 259 261 261 260 260 259 258 258 259 261 257 257 257 257 257 257 256 256 257 257 257 257 257 257 257 259 259 259
249 249 249 248 252 255 253 255 255 256 256 258 259 259 259 260 258 259 260 259 259 258 257 259 260 259 257 257 256 256 256 256 256 256 256 255 255 256 256 256 256 257 257 257
252 254 254 252 253 254 256 256 256 257 258 257 259 259 259 259 259 259 259 258 258 257 257 257 256 256 256 256 256 256 256 256 255 255 255 255 255 255 255 255 255 256 256 256
252 252 255 255 256 256 256 256 256 256 257 256 256 258 258 258 258 257 257 257 256 256 256 255 255 255 254 254 255 255 255 255 254 253 253 254 253 253 254 254 255 255 255 255
Wind_Speed
18 21 22 21 21 25 26 25 25 25 23 22 21 17 12 8 3 4 4 3 4 5 6 8 8 9 10 11 10 10 12 11 10 10 10 9 8 8 9 8 8 8 9 9
18 20 20 22 25 26 23 24 26 25 27 22 9 4 2 2 4 7 7 5 5 6 7 8 9 9 9 10 9 9 11 12 12 10 10 10 9 10 10 11 10 10 10 10
19 15 18 18 22 23 25 24 25 24 12 8 5 3 4 6 7 8 10 7 8 8 9 10 11 10 11 11 9 7 9 10 10 10 11 11 10 12 12 13 13 12 13 12
15 12 21 13 13 14 16 14 11 7 2 2 2 6 8 8 10 11 11 12 11 9 11 11 11 11 10 8 8 10 11 11 11 11 12 12 12 13 13 12 13 13 14 14
10 14 18 25 20 18 15 16 8 6 5 2 8 11 13 9 6 11 11 11 11 8 10 12 12 9 8 8 10 11 12 13 13 13 14 14 14 14 15 13 14 15 15 16
11 15 18 15 1 1 3 12 7 6 3 7 10 11 12 12 11 11 11 10 8 8 10 11 11 11 10 12 12 13 13 14 14 15 15 16 16 17 16 15 16 14 17 18
14 16 12 5 5 3 8 8 8 5 8 11 12 11 14 12 13 10 9 8 7 9 11 11 11 11 13 14 15 15 14 15 15 15 16 17 18 17 16 16 17 19 19 19
5 7 13 4 5 7 3 3 5 11 14 14 13 12 12 13 11 9 7 8 9 10 12 12 12 11 14 16 16 16 16 17 17 16 14 14 18 17 18 17 19 20 19 18
8 6 3 10 10 10 11 12 15 15 14 12 12 12 12 11 9 7 8 9 9 8 12 13 10 10 14 16 16 17 17 18 17 17 16 15 17 17 15 16 16 16 15 16
12 16 24 19 19 19 16 17 16 14 12 10 12 10 9 6 6 7 7 7 7 9 11 13 11 12 12 15 15 15 17 17 16 16 17 16 13 13 13 13 14 14 15 16
14 21 18 20 18 19 18 17 16 11 8 9 6 7 5 5 5 6 7 8 7 9 11 14 13 13 13 14 14 16 16 16 16 14 16 15 14 13 13 15 16 15 15 16
15 19 16 18 16 14 13 15 12 8 6 3 2 4 3 4 5 6 8 9 9 10 12 13 14 14 14 13 13 15 16 14 13 14 13 14 14 14 23 31 33 34 36 29
19 20 20 21 18 15 15 10 4 4 3 4 3 2 3 4 5 7 8 9 10 12 13 14 14 15 14 13 13 16 16 16 13 15 14 15 14 14 16 17 31 33 34 34
18 18 20 20 14 7 1 5 6 4 2 1 1 1 3 5 6 7 8 9 11 11 12 13 14 15 14 14 15 15 16 21 15 13 14 14 14 15 14 15 16 16 21 25
18 14 13 8 1 4 5 6 5 5 5 4 2 2 4 6 7 8 9 9 9 11 12 11 13 15 13 14 15 16 14 13 13 13 14 16 15 15 14 15 15 15 14 19
3 4 1 3 5 7 6 5 6 6 4 3 3 4 5 6 8 8 10 9 8 10 12 13 14 14 14 15 15 13 13 18 17 13 13 14 13 13 13 13 13 12 12 13
2 4 3 4 6 6 5 2 2 2 1 3 5 4 5 6 7 9 9 7 9 11 12 11 13 13 15 14 14 11 11 13 16 13 12 12 13 13 13 13 10 10 11 13
4 5 4 4 2 4 3 2 2 2 4 4 5 6 6 5 9 9 10 9 10 10 9 7 10 13 14 14 13 11 11 11 11 12 12 12 12 12 11 11 11 10 10 10
4 5 4 4 3 1 1 3 3 3 4 5 6 6 7 8 9 10 9 9 9 9 6 10 14 15 14 14 13 9 10 12 11 11 11 15 12 11 10 10 11 10 10 9
5 4 4 3 2 1 2 3 4 5 5 4 4 6 9 9 7 7 8 9 9 6 8 10 11 11 13 11 13 8 10 11 11 11 10 11 11 11 10 12 11 10 10 9
3 2 2 1 2 2 3 3 3 6 6 5 7 8 8 8 7 7 8 6 3 5 8 10 7 8 9 10 9 8 9 10 10 10 10 11 11 11 11 11 10 10 10 9
1 1 1 2 3 5 3 3 4 5 6 6 7 7 7 8 8 8 7 7 5 8 7 6 6 11 9 12 7 8 8 9 9 9 9 10 9 10 10 10 10 9 9 9
2 1 2 2 3 5 5 5 5 5 6 6 6 6 7 6 5 5 5 1 5 6 6 5 9 12 12 6 6 7 8 9 9 9 9 9 9 9 9 10 9 10 10 10
1 1 2 2 2 3 5 4 4 6 6 6 7 7 6 5 4 3 3 6 7 7 6 5 8 11 9 5 6 6 7 7 8 8 9 10 8 8 8 9 9 9 9 11
2 1 2 3 4 3 3 4 5 4 4 4 3 2 2 2 3 3 4 4 7 6 6 7 9 10 5 5 6 6 6 6 7 7 8 8 8 8 8 8 8 8 7 7
3 1 1 1 3 3 4 4 4 4 4 4 2 2 2 2 3 4 4 5 5 6 5 5 5 5 5 5 6 6 5 6 7 7 8 7 8 7 7 8 7 7 7 7
2 2 1 0 1 3 3 4 4 4 4 4 5 3 3 3 4 4 5 5 5 5 5 4 4 5 5 5 5 5 5 5 5 6 6 6 6 6 7 7 7 6 6 6
Wind_Direction
264 270 279 285 282 275 271 272 270 283 288 290 296 291 310 342 3 279 254 299 331 329 331 324 318 318 325 329 325 330 333 330 331 326 325 321 312 313 307 300 302 305 305 305
278 274 273 274 269 267 274 276 275 278 276 281 22 44 246 240 274 288 263 300 324 329 324 317 311 301 306 300 307 325 317 310 315 317 315 311 308 308 306 300 294 298 298 294
265 280 288 269 257 266 265 264 268 272 307 356 339 294 303 296 287 308 290 283 302 314 327 324 324 317 297 302 310 304 294 293 295 300 297 299 302 306 306 308 304 301 299 293
272 284 259 268 285 286 285 292 296 308 118 120 353 327 313 291 287 293 294 278 277 302 311 319 320 313 313 305 298 295 291 291 290 285 287 287 293 294 299 300 299 296 292 289
252 250 278 290 286 289 295 291 313 179 169 15 338 320 295 294 341 318 298 299 297 295 310 315 318 322 326 311 301 297 294 291 290 288 287 284 281 283 287 290 290 290 286 284
245 258 265 283 38 18 299 276 119 110 198 294 307 288 293 327 324 299 290 303 320 334 312 314 328 336 329 310 308 303 300 295 295 294 290 285 283 284 284 283 282 283 283 281
244 255 267 264 92 135 242 299 151 184 291 292 281 278 297 297 290 286 297 304 321 316 314 320 336 337 314 309 306 309 310 306 303 299 296 294 292 288 287 285 283 279 278 279
220 262 269 83 128 227 332 179 249 292 297 290 286 283 284 284 286 300 325 322 325 323 313 322 331 333 311 306 316 317 314 308 307 305 300 296 293 291 287 284 279 276 276 276
231 254 251 190 246 260 276 277 289 287 292 292 277 275 279 289 305 311 323 336 337 328 314 313 324 320 306 309 318 314 310 306 305 303 299 294 291 290 288 283 278 277 275 276
255 248 258 267 266 268 275 275 283 285 289 279 270 281 285 295 307 310 321 327 331 318 305 304 316 311 306 309 310 306 301 300 301 297 296 291 285 283 283 283 282 280 278 275
251 257 268 263 264 266 270 275 282 284 276 266 260 261 286 300 308 307 317 319 320 310 302 301 310 308 308 306 307 302 300 299 297 292 291 292 284 282 278 273 270 272 268 269
251 258 263 271 276 279 283 281 284 277 197 186 206 264 284 280 302 310 310 316 307 301 299 300 305 303 305 305 303 304 301 298 297 297 294 291 290 286 278 283 284 283 282 277
256 259 261 267 279 281 282 286 188 189 188 212 202 249 281 290 298 316 304 305 302 303 301 302 302 300 300 303 305 297 294 294 293 291 290 291 289 289 291 287 286 285 285 285
248 260 264 264 272 306 187 130 112 114 127 176 182 24 310 302 305 299 298 303 305 300 294 294 295 293 304 306 299 293 291 290 290 289 287 286 286 286 286 288 291 289 284 284
258 254 267 297 81 132 134 149 172 201 196 201 185 270 291 296 299 303 308 300 293 290 286 289 299 297 308 307 301 298 296 291 290 290 291 290 289 286 284 283 283 285 290 288
267 94 83 229 214 184 184 189 217 212 190 209 244 267 290 297 300 298 293 293 294 296 298 299 299 306 312 310 300 301 302 298 294 296 297 297 295 292 289 283 282 284 289 288
148 244 195 238 216 202 205 190 245 244 257 264 273 286 288 286 289 279 272 275 276 279 288 293 300 317 311 309 312 302 304 303 308 301 302 301 298 298 299 293 280 283 282 283
75 84 74 47 137 174 184 197 235 262 261 284 286 287 286 273 272 287 286 290 288 288 286 300 320 313 315 310 310 314 312 307 310 309 308 310 314 312 320 327 326 301 299 304
102 122 114 113 93 118 272 271 278 286 284 278 278 270 274 272 274 277 286 287 290 293 322 329 321 322 308 312 330 320 314 318 318 317 319 322 322 327 331 336 338 340 342 348
118 103 97 114 113 173 258 269 288 284 280 278 272 269 266 263 261 267 276 278 277 277 318 317 315 311 310 323 332 321 325 324 324 324 328 330 333 335 339 345 349 352 354 358
152 157 171 217 270 290 268 278 270 262 267 248 246 259 263 277 277 270 273 277 305 339 322 313 318 315 320 334 324 335 333 334 332 332 333 336 337 341 347 351 357 2 3 5
168 253 301 311 302 300 282 263 259 255 257 256 249 250 259 271 261 250 241 252 307 325 320 320 324 321 333 323 337 334 339 340 340 336 338 341 345 347 352 357 3 8 12 13
164 242 290 275 269 290 309 280 257 247 255 254 252 252 256 272 293 283 286 111 316 317 322 319 321 329 338 334 338 339 342 343 343 344 346 347 348 351 356 360 8 10 15 19
126 239 268 295 309 271 284 311 278 274 238 253 245 236 257 280 283 250 284 300 313 324 314 305 323 341 333 339 339 343 340 342 346 342 344 350 353 357 2 3 4 8 13 16
187 243 236 245 263 290 289 294 281 265 262 277 291 280 273 276 275 314 311 313 321 332 317 316 334 343 335 340 338 340 336 340 341 340 340 344 348 353 357 0 4 5 8 13
182 209 318 259 286 310 314 315 320 329 335 335 328 356 338 336 316 312 320 320 318 319 311 322 333 336 330 332 328 329 332 336 345 340 338 340 341 345 349 353 357 358 357 357
184 231 227 179 14 346 336 326 327 338 342 337 324 6 346 338 336 330 326 324 323 315 314 318 320 330 320 321 319 323 330 330 336 332 327 331 336 337 340 340 341 343 346 348